This is the latest recevied weather packets stored in our database for station/object N8XHB. If no packets are shown the sender has not sent any weather packets the latest 10 day(s).
| Time | Temp. | Humidity | Pressure | Rain* | Wind** | Luminosity | Snow |
|---|---|---|---|---|---|---|---|
| 1777382703 | 10.56° C | 86% | 1009.2 hPa | 0 mm | - | 69 W/m² | - |
| 1777382398 | 11.11° C | 85% | 1009 hPa | 0 mm | - | 71 W/m² | - |
| 1777382095 | 11.11° C | 85% | 1008.9 hPa | 0 mm | - | 60 W/m² | - |
| 1777381791 | 11.11° C | 84% | 1008.9 hPa | 0 mm | - | 58 W/m² | - |
| 1777381490 | 11.11° C | 84% | 1008.7 hPa | 0 mm | - | 47 W/m² | - |
| 1777381187 | 11.11° C | 84% | 1008.8 hPa | 0 mm | - | 42 W/m² | - |
| 1777380884 | 11.11° C | 84% | 1008.5 hPa | 0 mm | - | 47 W/m² | - |
| 1777380582 | 11.11° C | 85% | 1008.5 hPa | 0 mm | - | 53 W/m² | - |
| 1777380277 | 11.11° C | 84% | 1008.4 hPa | 0 mm | - | 38 W/m² | - |
| 1777379973 | 11.11° C | 84% | 1008.4 hPa | 0 mm | - | 31 W/m² | - |
| 1777379669 | 11.11° C | 83% | 1008.1 hPa | 0 mm | - | 30 W/m² | - |
| 1777379365 | 11.67° C | 83% | 1008 hPa | 0 mm | - | 27 W/m² | - |
| 1777379061 | 11.67° C | 83% | 1008.2 hPa | 0 mm | - | 26 W/m² | - |
| 1777378755 | 11.67° C | 83% | 1007.9 hPa | 0 mm | - | 17 W/m² | - |
| 1777378453 | 11.67° C | 83% | 1007.6 hPa | 0 mm | - | 19 W/m² | - |
| 1777378149 | 11.67° C | 83% | 1007.6 hPa | 0 mm | - | 18 W/m² | - |
| 1777377847 | 11.67° C | 83% | 1007.5 hPa | 0 mm | - | 22 W/m² | - |
| 1777377547 | 11.67° C | 84% | 1007.6 hPa | 0 mm | - | 28 W/m² | - |
| 1777377242 | 11.67° C | 84% | 1007.4 hPa | 0 mm | - | 21 W/m² | - |
| 1777376940 | 11.67° C | 84% | 1007.5 hPa | 0 mm | - | 17 W/m² | - |
| 1777376636 | 11.67° C | 83% | 1007.3 hPa | 0 mm | - | 14 W/m² | - |
| 1777376334 | 11.67° C | 83% | 1007.2 hPa | 0 mm | - | 11 W/m² | - |
| 1777376029 | 11.67° C | 83% | 1007.1 hPa | 0 mm | - | 8 W/m² | - |
| 1777375728 | 11.67° C | 83% | 1007.1 hPa | 0 mm | - | 8 W/m² | - |
| 1777375424 | 12.22° C | 82% | 1006.9 hPa | 0 mm | - | 5 W/m² | - |
* Rain latest hour (hover to see other rain measurements)
** Current wind speed in m/s (hover to see current wind gust speed)